Location: Barruelo
(41.2448°N, 3.8231°W)
Time: 16:56:56
(UTC+00:00)

IRAS Rocket - Pass Details

Date: 11 December 2025
Orbit: 846 x 875 km, 100.1° (Epoch: 15 January)

Event Time Altitude Azimuth Distance (km) Brightness Sun altitude
Rises 19:09:43 0° 171° (S) 3,404 7.4 -26.1°
Reaches altitude 10° 19:12:05 10° 174° (S) 2,469 6.6 -26.5°
Maximum altitude 19:17:31 66° 256° (WSW) 921 4.5 -27.6°
Drops below altitude 10° 19:22:59 10° 339° (NNW) 2,476 6.8 -28.6°
Sets 19:25:22 0° 342° (NNW) 3,415 7.5 -29.0°
